1302220832455,148.787
1302220892455,148.510
1302220952455,148.529
1302221012455,148.734
1302221072455,148.471
1302221132455,148.547
1302221192455,148.354
1302221252455,148.508
1302221312455,148.534
1302221372455,148.533
1302221432455,148.587
1302221492455,148.435
1302221552455,148.484
1302221612455,148.435
1302221672455,148.623
1302221732455,148.343
1302221792455,147.991
1302221852455,148.344
1302221912455,148.368
1302221972455,148.679
1302222032455,148.570
1302222092455,148.209
1302222152455,148.446
1302222212455,148.415
1302222272455,148.542
1302222332455,148.191
1302222392455,148.433
1302222452455,148.087
1302222512455,148.305
1302222572455,148.474
1302222632455,148.187
1302222692455,147.926
1302222752455,148.168
1302222812455,148.533
1302222872455,148.197
1302222932455,148.718
1302222992455,148.070
1302223052455,148.232
1302223112455,148.116
1302223172455,148.394
1302223232455,148.308
1302223292455,148.139
1302223352455,148.329
1302223412455,148.650
1302223472455,148.475
1302223532455,148.722
1302223592455,148.336
1302223652455,148.242
1302223712455,148.485
1302223772455,148.342
1302223832455,148.232
1302223892455,148.579
1302223952455,148.439
1302224012455,148.549
1302224072455,148.462
1302224132455,148.308
1302224192455,148.449
1302224252455,148.288
1302224312455,148.508
1302224372455,148.448
1302224432466,148.533
1302224492466,148.565
1302224552466,148.224
1302224612466,148.785
1302224672466,148.404
1302224732466,148.478
1302224792466,148.473
1302224852466,148.416
1302224912466,148.474
1302224972466,148.471
1302225032466,148.916
1302225092466,148.506
1302225152466,148.576
1302225212466,148.560
1302225272466,148.741
1302225332466,148.453
1302225392466,148.571
1302225452466,148.500
1302225512466,148.587
1302225572466,148.654
1302225632466,148.394
1302225692466,148.439
1302225752466,148.554
1302225812466,148.506
1302225872466,148.741
1302225932466,148.363
1302225992466,148.549
1302226052466,148.753
1302226112466,148.727
1302226172466,148.660
1302226232466,148.432
1302226292466,148.604
1302226352466,148.644
1302226412466,148.476
1302226472466,148.452
1302226532466,148.417
1302226592466,148.529
1302226652466,148.532
1302226712466,148.452
1302226772466,148.558
1302226832466,148.156
1302226892466,148.306
1302226952466,148.714
1302227012466,148.390
1302227072466,148.238
1302227132466,148.543
1302227192466,148.524
1302227252466,148.497
1302227312466,148.452
1302227372466,148.221
1302227432466,148.690
1302227492466,148.262
1302227552466,148.577
1302227612466,148.474
1302227672466,148.411
1302227732466,148.435
1302227792466,148.584
1302227852466,148.340
1302227912466,148.439
1302227972466,148.649
1302228032478,148.381
1302228092478,148.487
1302228152478,148.639
1302228212478,148.612
1302228272478,148.446
1302228332478,148.388
1302228392478,148.602
1302228452478,148.383
1302228512478,148.360
1302228572478,148.890
1302228632478,148.706
1302228692478,148.548
1302228752478,148.646
1302228812478,148.771
1302228872478,148.428
1302228932478,148.722
1302228992478,148.858
1302229052478,148.686
1302229112478,148.520
1302229172478,148.790
1302229232478,148.939
1302229292478,148.451
1302229352478,148.672
1302229412478,148.974
1302229472478,148.921
1302229532478,148.861
1302229592478,148.835
1302229652478,148.736
1302229712478,148.640
1302229772478,148.734
1302229832478,148.876
1302229892478,149.197
1302229952478,148.891
1302230012478,149.061
1302230072478,149.064
1302230132478,149.100
1302230192478,149.072
1302230252478,148.886
1302230312478,149.357
1302230372478,148.800
1302230432478,148.988
1302230492478,149.247
1302230552478,148.937
1302230612478,149.082
1302230672478,149.085
1302230732478,149.210
1302230792478,149.188
1302230852478,149.379
1302230912478,148.841
1302230972478,149.021
1302231032478,149.069
1302231092478,149.062
1302231152478,148.555
1302231212478,149.172
1302231272478,148.943
1302231332478,148.837
1302231392478,149.044
1302231452478,148.795
1302231512478,148.846
1302231572478,148.943
1302231632489,148.769
1302231692489,149.018
1302231752489,148.833
1302231812489,148.504
1302231872489,148.630
1302231932489,148.669
1302231992489,149.224
1302232052489,149.013
1302232112489,148.762
1302232172489,148.880
1302232232489,148.757
1302232292489,148.696
1302232352489,148.697
1302232412489,148.973
1302232472489,148.707
1302232532489,148.780
1302232592489,148.758
1302232652489,148.809
1302232712489,148.190
1302232772489,148.671
1302232832489,148.744
1302232892489,148.663
1302232952489,148.857
1302233012489,148.950
1302233072489,148.823
1302233132489,148.803
1302233192489,148.607
1302233252489,149.001
1302233312489,148.803
1302233372489,148.794
1302233432489,148.474
1302233492489,148.618
1302233552489,148.639
1302233612489,148.661
1302233672489,148.598
1302233732489,148.630
1302233792489,148.841
1302233852489,148.736
1302233912489,148.570
1302233972489,148.741
1302234032489,148.390
1302234092489,148.602
1302234152489,148.601
1302234212489,148.506
1302234272489,148.340
1302234332489,148.681
1302234392489,148.301
1302234452489,148.429
1302234512489,148.282
1302234572489,148.384
1302234632489,148.430
1302234692489,148.322
1302234752489,148.007
1302234812489,148.505
1302234872489,148.374
1302234932489,148.330
1302234992489,148.264
1302235052489,148.120
1302235112489,148.136
1302235172489,148.075
1302235232500,148.215
1302235292500,148.245
1302235352500,147.964
1302235412500,148.094
1302235472500,148.279
1302235532500,147.922
1302235592500,148.037
1302235652500,147.939
1302235712500,147.729
1302235772500,148.104
1302235832500,147.954
1302235892500,147.945
1302235952500,148.012
1302236012500,147.854
1302236072500,147.976
1302236132500,148.288
1302236192500,147.811
1302236252500,147.922
1302236312500,148.193
1302236372500,148.157
1302236432500,148.222
1302236492500,147.854
1302236552500,147.887
1302236612500,148.034
1302236672500,147.686
1302236732500,148.475
1302236792500,147.857
1302236852500,147.907
1302236912500,148.038
1302236972500,148.347
1302237032500,148.051
1302237092500,148.145
1302237152500,148.045
1302237212500,148.038
1302237272500,147.953
1302237332500,148.254
1302237392500,148.404
1302237452500,148.175
1302237512500,148.021
1302237572500,147.927
1302237632500,148.186
1302237692500,148.045
1302237752500,148.229
1302237812500,147.989
1302237872500,147.926
1302237932500,148.268
1302237992500,148.393
1302238052500,148.276
1302238112500,147.988
1302238172500,148.298
1302238232500,148.096
1302238292500,147.840
1302238352500,148.047
1302238412500,148.033
1302238472500,148.250
1302238532500,147.978
1302238592500,148.447
1302238652500,148.308
1302238712500,148.025
1302238772500,148.300
1302238832511,148.295
1302238892511,148.047
1302238952511,147.815
1302239012511,147.909
1302239072511,148.110
1302239132511,148.297
1302239192511,148.030
1302239252511,147.890
1302239312511,148.081
1302239372511,148.225
1302239432511,147.878
1302239492511,147.938
1302239552511,148.082
1302239612511,148.123
1302239672511,147.835
1302239732511,148.051
1302239792511,148.087
1302239852511,148.028
1302239912511,147.978
1302239972511,148.369
1302240032511,148.046
1302240092511,148.243
1302240152511,148.073
1302240212511,147.900
1302240272511,147.709
1302240332511,147.779
1302240392511,148.022
1302240452511,147.965
1302240512511,147.880
1302240572511,147.889
1302240632511,148.027
1302240692511,147.946
1302240752511,147.948
1302240812511,147.862
1302240872511,147.878
1302240932511,148.022
1302240992511,148.179
1302241052511,147.931
1302241112511,147.716
1302241172511,148.221
1302241232511,147.929
1302241292511,147.808
1302241352511,147.736
1302241412511,147.874
1302241472511,148.159
1302241532511,147.894
1302241592511,148.133
1302241652511,147.795
1302241712511,147.753
1302241772511,147.893
1302241832511,148.171
1302241892511,148.128
1302241952511,147.885
1302242012511,147.979
1302242072511,148.113
1302242132511,148.210
1302242192511,147.874
1302242252511,148.236
1302242312511,148.276
1302242372511,148.213
1302242432522,147.867
1302242492522,148.187
1302242552522,148.278
1302242612522,148.405
1302242672522,148.415
1302242732522,148.497
1302242792522,148.359
1302242852522,148.425
1302242912522,148.206
1302242972522,148.353
1302243032522,148.176
1302243092522,148.037
1302243152522,148.587
1302243212522,148.276
1302243272522,148.546
1302243332522,148.507
1302243392522,148.477
1302243452522,148.411
1302243512522,148.610
1302243572522,148.491
1302243632522,148.502
1302243692522,148.456
1302243752522,148.685
1302243812522,148.739
1302243872522,148.607
1302243932522,148.858
1302243992522,148.888
1302244052522,148.553
1302244112522,148.868
1302244172522,148.356
1302244232522,148.500
1302244292522,148.646
1302244352522,148.637
1302244412522,148.662
1302244472522,148.661
1302244532522,148.731
1302244592522,148.649
1302244652522,148.624
1302244712522,148.522
1302244772522,148.962
1302244832522,148.843
1302244892522,148.602
1302244952522,148.736
1302245012522,148.821
1302245072522,148.920
1302245132522,148.876
1302245192522,148.836
1302245252522,148.553
1302245312522,148.592
1302245372522,148.645
1302245432522,149.122
1302245492522,148.833
1302245552522,148.652
1302245612522,148.698
1302245672522,148.545
1302245732522,148.692
1302245792522,148.967
1302245852522,148.394
1302245912522,148.610
1302245972522,148.709
1302246032533,148.609
1302246092533,149.052
1302246152533,148.763
1302246212533,148.491
1302246272533,148.657
1302246332533,148.582
1302246392533,148.610
1302246452533,148.959
1302246512533,148.689
1302246572533,148.672
1302246632533,148.972
1302246692533,148.498
1302246752533,148.934
1302246812533,148.910
1302246872533,148.929
1302246932533,148.858
1302246992533,148.624
1302247052533,148.826
1302247112533,148.882
1302247172533,148.813
1302247232533,148.973
1302247292533,148.795
1302247352533,148.624
1302247412533,149.093
1302247472533,148.736
1302247532533,148.993
1302247592533,148.814
1302247652533,148.755
1302247712533,148.565
1302247772533,148.314
1302247832533,148.798
1302247892533,148.959
1302247952533,148.910
1302248012533,148.844
1302248072533,148.779
1302248132533,148.766
1302248192533,148.681
1302248252533,148.707
1302248312533,148.508
1302248372533,148.971
1302248432533,148.599
1302248492533,148.754
1302248552533,148.631
1302248612533,148.676
1302248672533,148.447
1302248732533,148.972
1302248792533,148.439
1302248852533,148.260
1302248912533,148.530
1302248972533,148.538
1302249032533,148.714
1302249092533,148.574
1302249152533,148.525
1302249212533,148.525
1302249272533,148.761
1302249332533,148.476
1302249392533,148.409
1302249452533,148.639
1302249512533,148.373
1302249572533,148.574
1302249632544,148.650
1302249692544,148.553
1302249752544,148.468
1302249812544,148.427
1302249872544,148.698
1302249932544,148.726
1302249992544,148.820
1302250052544,148.598
1302250112544,148.418
1302250172544,148.561
1302250232544,148.486
1302250292544,148.121
1302250352544,148.468
1302250412544,148.442
1302250472544,148.719
1302250532544,148.784
1302250592544,148.275
1302250652544,148.686
1302250712544,148.273
1302250772544,148.718
1302250832544,148.917
1302250892544,148.915
1302250952544,148.700
1302251012544,148.313
1302251072544,148.622
1302251132544,148.427
1302251192544,148.548
1302251252544,148.550
1302251312544,148.534
1302251372544,148.608
1302251432544,148.299
1302251492544,148.190
1302251552544,148.688
1302251612544,148.369
1302251672544,148.367
1302251732544,148.467
1302251792544,148.114
1302251852544,148.364
1302251912544,148.280
1302251972544,148.372
1302252032544,148.047
1302252092544,148.242
1302252152544,148.133
1302252212544,148.130
1302252272544,148.145
1302252332544,148.016
1302252392544,148.200
1302252452544,148.188
1302252512544,148.102
1302252572544,147.983
1302252632544,148.096
1302252692544,147.902
1302252752544,148.082
1302252812544,148.266
1302252872544,148.035
1302252932544,147.732
1302252992544,147.701
1302253052544,147.877
1302253112544,147.936
1302253172544,148.168
1302253232555,147.904
1302253292555,147.852
1302253352556,147.706
1302253412555,147.501
1302253472555,147.727
1302253532555,147.902
1302253592555,147.806
1302253652555,147.959
1302253712555,147.625
1302253772555,147.614
1302253832555,148.069
1302253892555,147.627
1302254432555,147.585
1302254492555,145.250
1302254552555,147.411
1302254612555,147.627
1302254672556,147.522
1302254732556,147.591
1302254792555,147.442
1302254852555,147.381
1302254912555,147.284
1302254972555,147.529
1302255032555,147.602
1302255092555,147.161
1302255152555,147.283
1302255212555,147.248
1302255272555,147.203
1302255332555,147.513
1302255392555,147.173
1302255452555,147.350
1302255512555,147.135
1302255572555,147.368
1302255632555,147.157
1302255692555,147.422
1302255752555,147.400
1302255812555,147.077
1302255872555,147.181
1302255932555,147.005
1302255992555,147.159
1302256052556,146.831
1302256112555,146.974
1302256172555,147.229
1302256232555,147.016
1302256292555,146.771
1302256352555,147.305
1302256412555,146.934
1302256472555,147.068
1302256532555,146.754
1302256592555,147.136
1302256652555,147.003
1302256712555,146.795
1302256772555,146.881
1302256832567,146.851
1302256892567,146.955
1302256952567,147.115
1302257012567,146.799
1302257072567,147.009
1302257132567,146.832
1302257192567,147.007
1302257252567,146.932
1302257312567,146.739
1302257372567,146.978
1302257432567,146.731
1302257492567,146.802
1302257552567,146.913
1302257612567,146.950
1302257672567,146.842
1302257732567,147.105
1302257792567,146.632
1302257852567,146.802
1302257912567,146.807
1302257972567,147.052
1302258032567,146.970
1302258092567,146.694
1302258152567,146.769
1302258212567,146.768
1302258272567,146.560
1302258332567,146.892
1302258392567,146.799
1302258452567,146.918
1302258512567,147.049
1302258572567,146.554
1302258632567,146.687
1302258692567,146.572
1302258752567,147.166
1302258812567,146.861
1302258872567,146.702
1302258932567,146.606
1302258992567,146.691
1302259052567,146.840
1302259112567,146.795
1302259172567,146.597
1302259232567,146.573
1302259292567,146.968
1302259352567,146.768
1302259412567,146.662
1302259472567,146.891
1302259532567,146.615
1302259592567,146.656
1302259652567,146.719
1302259712567,146.692
1302259772567,146.812
1302259832567,146.579
1302259892567,146.770
1302259952567,146.953
1302260012567,146.457
1302260072567,146.643
1302260132567,146.691
1302260192567,146.840
1302260252567,146.548
1302260312567,146.676
1302260372567,146.397
1302260432578,146.462
1302260492578,146.489
1302260552578,146.408
1302260612578,146.214
1302260672578,146.470
1302260732578,146.320
1302260792578,146.462
1302260852578,146.409
1302260912578,146.230
1302260972578,146.494
1302261032578,146.328
1302261092578,146.562
1302261152578,146.548
1302261212578,146.225
1302261272578,146.387
1302261332578,146.575
1302261392578,146.619
1302261452578,146.426
1302261512578,146.450
1302261572578,146.539
1302261632578,146.411
1302261692578,146.422
1302261752578,146.686
1302261812578,146.562
1302261872578,146.232
1302261932578,146.400
1302261992578,146.423
1302262052578,146.204
1302262112578,146.538
1302262172578,146.492
1302262232578,146.161
1302262292578,146.471
1302262352578,146.468
1302262412578,146.169
1302262472578,146.284
1302262532578,146.393
1302262592578,146.241
1302262652578,146.421
1302262712578,146.675
1302262772578,146.397
1302262832578,146.366
1302262892578,146.261
1302262952578,146.334
1302263012578,146.456
1302263072578,146.205
1302263132578,146.379
1302263192578,146.306
1302263252578,146.581
1302263312578,146.667
1302263372578,146.430
1302263432578,146.621
1302263492578,146.749
1302263552578,146.482
1302263612578,146.828
1302263672578,146.687
1302263732578,146.595
1302263792578,146.522
1302263852578,146.755
1302263912578,146.554
1302263972578,146.726
1302264032589,146.588
1302264092589,146.603
1302264152589,146.437
1302264212589,146.854
1302264272589,146.422
1302264332589,146.961
1302264392589,146.698
1302264452589,146.982
1302264512589,146.494
1302264572589,146.562
1302264632589,146.110
1302264692589,146.354
1302264752589,146.619
1302264812589,146.514
1302264872589,146.328
1302264932589,146.569
1302264992589,146.659
1302265052589,146.164
1302265112589,146.901
1302265172589,146.633
1302265232589,146.348
1302265292589,146.639
1302265352589,146.497
1302265412589,146.501
1302265472589,146.367
1302265532589,146.540
1302265592589,146.497
1302265652589,146.505
1302265712589,146.174
1302265772589,146.167
1302265832589,146.449
1302265892589,146.491
1302265952589,146.050
1302266012589,146.406
1302266072589,146.235
1302266132589,146.485
1302266192589,146.153
1302266252589,146.246
1302266312589,146.090
1302266372589,146.054
1302266432589,146.567
1302266492589,146.045
1302266552589,146.265
1302266612589,146.698
1302266672589,146.331
1302266732589,146.714
1302266792589,146.559
1302266852589,146.355
1302266912589,146.565
1302266972589,146.327
1302267032589,146.186
1302267092589,146.476
1302267152589,146.253
1302267212589,146.072
1302267272589,146.634
1302267332589,146.080
1302267392589,146.203
1302267452589,146.155
1302267512589,146.204
1302267572589,146.335
1302267632600,146.538
1302267692600,146.389
1302267752600,146.522
1302267812600,146.298
1302267872600,146.423
1302267932600,146.662
1302267992600,146.688
1302268052600,146.546
1302268112600,146.664
1302268172600,146.671
1302268232600,146.677
1302268292600,146.841
1302268352600,146.725
1302268412600,146.743
1302268472600,146.608
1302268532600,146.771
1302268592600,146.846
1302268652600,146.902
1302268712600,146.704
1302268772600,146.712
1302268832600,146.894
1302268892600,146.585
1302268952600,146.490
1302269012600,146.909
1302269072600,146.635
1302269132600,146.869
1302269192600,146.615
1302269252600,146.672
1302269312600,147.068
1302269372600,146.659
1302269432600,146.888
1302269492600,146.866
1302269552600,146.952
1302269612600,147.051
1302269672600,147.036
1302269732600,146.898
1302269792600,147.014
1302269852600,146.891
1302269912600,146.935
1302269972600,146.543
1302270032600,147.027
1302270092600,147.126
1302270152600,146.912
1302270212600,146.994
1302270272600,146.788
1302270332600,146.974
1302270392600,146.999
1302270452600,146.915
1302270512600,146.667
1302270572600,146.783
1302270632600,146.592
1302270692600,146.885
1302270752600,147.068
1302270812600,147.039
1302270872600,146.939
1302270932600,146.960
1302270992600,147.072
1302271052600,147.206
1302271112600,147.025
1302271172600,147.248
1302271232610,147.151
1302271292610,147.055
1302271352610,147.120
1302271412610,147.129
1302271472610,147.364
1302271532610,147.041
1302271592610,146.918
1302271652610,146.997
1302271712610,147.180
1302271772610,147.070
1302271832610,147.088
1302271892610,146.882
1302271952610,146.683
1302272012610,146.986
1302272072610,146.781
1302272132610,146.950
1302272192610,146.975
1302272252610,147.112
1302272312610,146.974
1302272372610,147.263
1302272432610,146.919
1302272492610,146.882
1302272552610,147.114
1302272612610,146.829
1302272672610,146.600
1302272732610,147.062
1302272792610,146.892
1302272852610,146.842
1302272912610,147.185
1302272972610,146.731
1302273032610,146.889
1302273092610,147.058
1302273152610,146.833
1302273212610,147.097
1302273272610,147.060
1302273332610,146.811
1302273392610,147.162
1302273452610,146.826
1302273512610,146.716
1302273572610,146.925
1302273632610,146.635
1302273692610,146.529
1302273752610,146.670
1302273812610,146.666
1302273872610,146.681
1302273932610,146.763
1302273992610,146.783
1302274052610,146.893
1302274112610,146.698
1302274172610,146.573
1302274232610,146.863
1302274292610,146.961
1302274352610,146.989
1302274412610,146.831
1302274472610,146.908
1302274532610,146.778
1302274592610,146.994
1302274652610,146.713
1302274712610,147.147
1302274772610,147.032
1302274832621,147.009
1302274892621,146.949
1302274952621,147.014
1302275012621,146.928
1302275072621,147.112
1302275132621,147.104
1302275192621,146.899
1302275252621,147.278
1302275312621,147.293
1302275372621,146.945
1302275432621,146.927
1302275492621,147.018
1302275552621,147.329
1302275612621,146.981
1302275672621,146.936
1302275732621,147.181
1302275792621,146.971
1302275852621,146.888
1302275912621,146.771
1302275972621,147.053
1302276032621,147.097
1302276092621,146.968
1302276152621,147.220
1302276212621,146.980
1302276272621,147.219
1302276332621,147.033
1302276392621,146.834
1302276452621,147.108
1302276512621,147.209
1302276572621,146.808
1302276632621,147.060
1302276692621,147.051
1302276752621,147.358
1302276812621,146.914
1302276872621,147.127
1302276932621,147.280
1302276992621,146.916
1302277052621,147.222
1302277112621,147.123
1302277172621,147.140
1302277232621,147.003
1302277292621,146.959
1302277352621,146.890
1302277412621,147.107
1302277472621,147.194
1302277532621,147.171
1302277592621,146.853
1302277652621,146.884
1302277712621,147.083
1302277772621,147.143
1302277832621,147.136
1302277892621,147.070
1302277952621,147.055
1302278012621,146.863
1302278072621,146.893
1302278132621,146.758
1302278192621,146.698
1302278252621,146.743
1302278312621,147.055
1302278372621,146.612
1302278432631,147.042
1302278492631,146.694
1302278552631,146.614
1302278612631,146.657
1302278672631,146.483
1302278732631,146.647
1302278792631,146.732
1302278852631,146.557
1302278912631,146.732
1302278972631,146.421
1302279032632,146.669
1302279092631,146.545
1302279152631,146.708
1302279212631,146.449
1302279272631,146.590
1302279332632,146.247
1302279392632,146.481
1302279452632,146.574
1302279512632,146.568
1302279572632,146.259
1302279632632,146.717
1302279692632,146.265
1302279752631,146.542
1302279812631,146.430
1302279872631,146.424
1302279932631,146.491
1302279992631,146.456
1302280052631,146.567
1302280112631,146.389
1302280172631,146.362
1302280232631,146.522
1302280292631,146.544
1302280352632,146.680
1302280412631,146.613
1302280472631,146.558
1302280532631,146.386
1302280592631,146.518
1302280652631,146.890
1302280712632,146.742
1302280772632,146.733
1302280832632,146.513
1302280892632,146.663
1302280952632,146.862
1302281012632,146.538
1302281072632,146.835
1302281132631,146.650
1302281192631,146.785
1302281252631,146.682
1302281312631,146.660
1302281372631,146.594
1302281432631,146.728
1302281492631,146.740
1302281552631,146.898
1302281612631,146.640
1302281672631,146.509
1302281732632,146.378
1302281792631,146.510
1302281852631,146.772
1302281912631,146.609
1302281972631,146.675
1302282032642,146.496
1302282092642,146.387
1302282152642,146.608
1302282212642,146.800
1302282272642,146.599
1302282332642,146.706
1302282392642,146.875
1302282452642,146.565
1302282512642,146.833
1302282572642,146.596
1302282632642,146.526
1302282692642,146.612
1302282752642,147.077
1302282812642,146.966
1302282872642,146.526
1302282932642,146.615
1302282992642,146.441
1302283052642,146.720
1302283112642,146.811
1302283172642,146.580
1302283232642,146.535
1302283292642,146.457
1302283352642,146.672
1302283412642,146.822
1302283472642,146.440
1302283532642,146.755
1302283592642,146.598
1302283652642,146.655
1302283712642,146.862
1302283772642,146.912
1302283832642,146.579
1302283892642,146.713
1302283952642,146.843
1302284012642,146.710
1302284072642,146.752
1302284132642,146.870
1302284192642,146.979
1302284252642,146.844
1302284312642,146.447
1302284372642,146.838
1302284432642,146.683
1302284492642,147.071
1302284552642,146.762
1302284612642,146.480
1302284672642,146.881
1302284732642,146.509
1302284792642,146.918
1302284852642,146.963
1302284912642,146.758
1302284972642,146.713
1302285032642,146.957
1302285092642,146.644
1302285152642,146.718
1302285212642,146.655
1302285272642,146.787
1302285332642,146.829
1302285392642,146.793
1302285452642,147.120
1302285512642,146.810
1302285572642,146.853
1302285632652,146.415
1302285692652,146.752
1302285752652,146.601
1302285812652,146.593
1302285872652,146.741
1302285932652,146.736
1302285992652,146.653
1302286052652,146.624
1302286112652,146.860
1302286172652,146.739
1302286232652,146.597
1302286292652,146.755
1302286352652,146.774
1302286412652,146.667
1302286472652,146.819
1302286532652,146.790
1302286592652,146.605
1302286652652,146.800